Location: Unspecified
(0.0000°N, 0.0000°E)
Time: 00:03:12
(UTC+00:00)

N. Korean satellite - Pass Details

Date: 20 February 2020
Orbit: 456 x 505 km, 97.2° (Epoch: 26 February)

Event Time Altitude Azimuth Distance (km) Brightness Sun altitude
Rises 05:44:27 0° 357° (N) 2,578 10.1 -7.2°
Reaches altitude 10° 05:46:39 10° 348° (NNW) 1,693 9.1 -6.7°
Maximum altitude 05:50:00 35° 281° (W) 810 7.2 -5.8°
Drops below altitude 10° 05:53:20 10° 214° (SW) 1,680 9.1 -5.0°
Sets 05:55:31 0° 205° (SSW) 2,554 10.1 -4.5°
